sat.trackr.live / text

‹ back to catalog

DAQI-2

NORAD 68760 · 2026-084A

PAYLOAD ACTIVE UNKNOWN

§ Identity

Operator
Country
PRC
Launch date
2026-04-17
Launch site
JSC
Launch vehicle
Mass (kg)
RCS (m²)

External: N2YO · Heavens-Above · Gunter

§ Orbital elements

Epoch: 2026-09-19T11:50:02.686560Z

Period
98.79 min
Inclination
98.2800°
Eccentricity
0.0002574
Mean motion
14.57589755 rev/d
Perigee alt
699.1 km
Apogee alt
702.8 km
Semi-major
7,079.1 km
B*
5.9986e-5
RAAN
336.2201°
Arg perigee
138.8109°
Mean anomaly
221.3284°
Rev number
2,263

§ Raw data

DAQI-21 68760U 26084A   26262.49308665  .00000227  00000+0  59986-4 0  99972 68760  98.2800 336.2201 0002574 138.8109 221.3284 14.57589755 22632

JSON: /api/v1/satellites/68760 · /tle

For live sub-satellite position, see the globe view (requires WebGL).

§ Visibility from observer

Set your observer location to see the next 7 days of passes ≥ 10°. The values pass through the URL so the page stays shareable.

No JS? Fill the form by hand. The geolocation button needs JavaScript.

§ Radio — SatNOGS DB

ModeDescriptionDownlinkUplink
UNKNOWN S-band telemetry 2.228 GHz
UNKNOWN S-band telemetry 2.289 GHz

2 transmitters · refreshed weekly from db.satnogs.org